"Pseudo-MPEC" for A10vcA4
Created 2021 Feb 26 5:07:03 UT using Find_Orb
Click here for an explanation of pseudo-MPECs
Astrometry: A10vcA4 C2021 02 12.61103914 54 20.38 -43 58 05.0 ~2CJM 18.73cVNEOCPT05 A10vcA4 C2021 02 12.61378414 54 20.26 -43 58 04.7 ~2CJM 19.00cVNEOCPT05 A10vcA4 C2021 02 12.61698514 54 20.21 -43 58 05.2 ~2CJM 18.74cVNEOCPT05 A10vcA4 C2021 02 12.62700314 54 19.69 -43 58 03.9 ~2CJM 19.11cVNEOCPT05 A10vcA4 |C2021 02 13-L5G=bjGGV;xwa+.^QBy\gZ8_J)4c4:p:OqWkb%8rt7o[vXsMLdB
807 A10vcA4 |C2021 02 13a'e+;Ns/D38pD*2#B*w3S2/1_]f2G.M#58.*f[:
AstrometrydH,
807 A10vcA4 |C2021 02 13Zl6Fp3PGF*Z0o?m[+nCXqXpY=\n1!=5bT\2A2Zgpnw@3D!slEQ=W
807 A10vcA4 |C2021 02 13vt8D+9`IO#W15xwI?H=qhQoCJbBUYTWV(JThc;7lrHW-/WsWtDy%
807 A10vcA4 |C2021 02 13:v)Vs95MpE/tw^oh*g6bNjq_d(4.[9WwX*6H1`mA[Gs-#]w?fhjK
807 A10vcA4 |C2021 02 15,L_n-Sq?*)#@Q5ZEV;Fthc[FY?fG0l-\Q!D^r=hV@
redacted;b-
807 A10vcA4 |C2021 02 15UC,e8S`[pu'pT7U0)bG4Es6b;l\$T8!`#mm=Nc9/4m0K#t.euB)@
807 A10vcA4 |C2021 02 15ot\1@?it1D547(,@FE)Zlm_ohm5=ir^_FtJg9m;J7*9(3E3D,mjy
807 A10vcA4 |C2021 02 15,:ASO_B!w[Hq_ieR^5CiNLVMNiq46bhvcO+HK,ya.qFQ\S6KvYTH
807 A10vcA4 3C2021 02 165'QXSeno-jqqsVsDs+
click%D,VZ_l+[K_^:AirtT@id:3]J,\f%
W88 A10vcA4 3C2021 02 16AE#M]fniHt(`4IOaw]'@yFZ2]^s?%xaJhL9Uu(Wo1=]4FD2)R)go
W88 A10vcA4 C2021 02 17cKh)*ADUwf[6uV?R%*IcoaPyA]\G$Q1O@n4ali^2JN.[m:`Qd#p3
474 A10vcA4 C2021 02 17e2`7H.;sE@AY[gHsyLG--oHFfKyjqfQ.49Jhfob-NwtPpMVr5dg7
474 A10vcA4 C2021 02 17fgW7^0\UPg=?A-F6p-m[H.%6CCW4/xk\\kRI/q)PY)AO6_vqbnZg
474 A10vcA4 1C2021 02 17^#do8Mn]MP_dBlg+=K[vT%EVXJvy/Tc
hereXFjL)=#C[y5I*,N?)
Q62 A10vcA4 1C2021 02 17\vb'lxJCtI,(fdNV72MnUcGDf+P:J3vFP$lnkP?wY_aoSsw!N`HL
Q62 A10vcA4 KC2021 02 18LSW@WjXttJCPA4[:fn(UI[OF6W`^^2k;,H_#Zw+#(L7cfWW@_fjt
E94 A10vcA4 KC2021 02 18o60'wHec9p?svyJ'V,SHot%:em*_buJiLr.5fh_(.2Xa7`Cmfmgk
E94 A10vcA4 KC2021 02 18s(0@fp)a@L3l[#X#b:1Ossf3k/WHP*3pp]S2WZyIoV\rsP*H#W46
E94 A10vcA4 KC2021 02 18Cq3?5P#FM9T9p49t)I0!B:_jpX.r%+Vxu,!Q,Ok`h;N[iW+S3MnL
E94 A10vcA4 3C2021 02 18r2CP@o,UbxPH'/)LIqBx-1/8?B?3I7yFhs;Nsp7L9(H/.rZPpg%Y
Q62 A10vcA4 3C2021 02 18[ynKjGK2@fan7xt77s:c(2CX(eNaD/=wWhh$myZaGq9A.+A(E^dW
Q62 A10vcA4 3C2021 02 18'B9FKEZB8`dpTeIhp_tkG%2)$pm[RjNx;NwuF@ga*^oIa]PXvJIC
Q62 A10vcA4 5C2021 02 20)6'-`tBldpEYxBUybv:G4/JvlTTBXW?aGFH.Aj_:y?mBNl^J,__o
Q62 A10vcA4 5C2021 02 200[;di]C^HI-VDQ0)l09,P_j!EP:::OU$8!n`@=mvaDaEjKG)WxhG
Q62 A10vcA4 5C2021 02 20S3QG'kv\pnNq2C1-:$)#D!moQLTsN-aYThK*KuxSFevXr7\Um9H-
Q62 A10vcA4 C2021 02 20IJ8P%1$2r]A;b%@]$s*ipaaxpTlpVStkJ+V(r)?mD(rd?v]I?-en
474 A10vcA4 C2021 02 20Q0GX=A9.EDdMGm/kO\/nXmrxT7X#U/Y?1l\,+DROcYF0/VUkeJ$2
474 A10vcA4 C2021 02 20BVgY4jix#bcoyow!*`5*K;9'q+lucYq?FP-js+m6n=iqfs!M.+RJ
474 A10vcA4 KC2021 02 22yYu^%pG^gf^qsNEYv['m$Edj?@qM%IQ$\Lbvc=)_iWg46=Iq0M=O
X02 A10vcA4 KC2021 02 22=6oi=N8o-uuI7Lg7iJvX'Fq[Iilv`unvD]9rOb%$^)o0p-
forS@]
X02 A10vcA4 1C2021 02 22fU2s76]2XZRqlN!TT%l7uVa\0'sP]O1@RM#e*[y\7q(er7sQ)0:q
Q62 A10vcA4 1C2021 02 22$S6Tj?p!_I)bh3wgIh
explanation8RSdi'pLkvf=mjJ]x:op;ry
Q62 Station data: (474) Mount John Observatory, Lake Tekapo (S43.987388 E170.464960) New Zealand. Observers A. C. Gilmore, P. M. Kilmartin. Measurer P. M. Kilmartin. 1.0-m f/7.7 reflector + CCD. (807) Cerro Tololo Observatory, La Serena (S30.169136 W70.805900) Chile. (E94) Gisborne (Possum Observatory) (S38.629922 E177.883310) New Zealand. (Q62) iTelescope Observatory, Siding Spring (S31.273289 E149.064420) Australia/NSW. 0.50-m f/6.8 astrograph + CCD + focal reducer, 0.70-m f/6.6 astrograph + CCD. (T05) ATLAS-HKO, Haleakala (N20.707573 W156.257010) US/Hawaii. Observers L. Denneau, A. Heinze, H. Weiland, J. Tonry, H. Flewelling, A. Fitzsimmons, D. Young, B. Stalder. Measurers L. Denneau, A. Heinze, J. Tonry. 0.5-m f/2.0 Schmidt + CCD. (W88) Slooh.com Chile Observatory, La Dehesa (S33.269128 W70.534300) Chile. 0.35-m f/11 Schmidt-Cassegrain + CCD. (X02) Telescope Live, El Sauce (S30.470668 W70.764830) Chile. Orbital elements: A10vcA4 Perihelion 2020 Jul 13.473485 TT = 11:21:49 (JD 2459043.973485) Epoch 2021 Feb 22.0 TT = JDT 2459267.5 Ju: 0.1871 Sa: 0.3675 M 1.94430077 (J2000 ecliptic) n 0.00869830 Peri. 292.21134 a 23.4160218 Node 196.27081 e 0.8284238 Incl. 130.20953 P 113.31 H 11.9 G 0.15 q 4.01763146 Q 42.8144121 From 37 observations 2021 Feb. 12-22; mean residual 0".72
Residuals in arcseconds: 210212 T05 .17- .23+ 210216 W88 .43- 1.0+ 210218 Q62 1.3+ 1.1+ 210212 T05 .31- .31+ 210216 W88 .07- 1.5+ 210220 Q62 .22+ .56+ 210212 T05 .49+ .45- 210217 474 .01+ 1.2+ 210220 Q62 .05+ .80+ 210212 T05 .92- .03+ 210217 474 .04- 1.2+ 210220 Q62 .35+ .98+ 210213 807 .19+ .78+ 210217 474 .64- 1.2+ 210220 474 .13+ .48+ 210213 807 .18- .80+ 210217 Q62 .19+ 1.7+ 210220 474 .06- .63+ 210213 807 .40+ .94+ 210217 Q62 .51+ 1.8+ 210220 474 .19+ .69+ 210213 807 .28- .65+ 210218 E94 .03- 1.1+ 210222 X02 .66+ .61+ 210213 807 .04- .88+ 210218 E94 .57+ .71+ 210222 X02 .31- .79+ 210215 807 .21- 1.2+ 210218 E94 .00 .00 210222 Q62 .20- .37- 210215 807 .26- 1.2+ 210218 E94 .55- .28+ 210222 Q62 .11+ .16- 210215 807 .08- 1.2+ 210218 Q62 1.4+ .59+ 210215 807 .09+ .83+ 210218 Q62 .22- .86+ Ephemerides (geocentric): Date (UTC) HH RA Dec delta r elong mag ---- -- -- -- ------------- ----------- ------ ------ ----- --- 2021 02 26 05 14 43 25.327 -43 27 56.76 4.0464 4.3871 103.7 18.9 2021 02 26 06 14 43 22.884 -43 27 48.82 4.0459 4.3872 103.7 18.9 2021 02 26 07 14 43 20.439 -43 27 40.85 4.0453 4.3874 103.8 18.9 2021 02 26 08 14 43 17.991 -43 27 32.88 4.0447 4.3875 103.8 18.9 2021 02 26 09 14 43 15.540 -43 27 24.88 4.0441 4.3876 103.8 18.9 2021 02 26 10 14 43 13.087 -43 27 16.87 4.0435 4.3877 103.9 18.9 2021 02 26 11 14 43 10.631 -43 27 08.84 4.0429 4.3879 103.9 18.9 2021 02 26 12 14 43 08.172 -43 27 00.79 4.0423 4.3880 104.0 18.9 2021 02 26 13 14 43 05.711 -43 26 52.73 4.0418 4.3881 104.0 18.9 2021 02 26 14 14 43 03.247 -43 26 44.65 4.0412 4.3882 104.1 18.9 2021 02 26 15 14 43 00.781 -43 26 36.55 4.0406 4.3884 104.1 18.9 2021 02 26 16 14 42 58.312 -43 26 28.44 4.0400 4.3885 104.2 18.9 2021 02 26 17 14 42 55.840 -43 26 20.31 4.0394 4.3886 104.2 18.9 2021 02 26 18 14 42 53.366 -43 26 12.16 4.0388 4.3888 104.2 18.9 2021 02 26 19 14 42 50.889 -43 26 03.99 4.0383 4.3889 104.3 18.9 2021 02 26 20 14 42 48.410 -43 25 55.81 4.0377 4.3890 104.3 18.9 2021 02 26 21 14 42 45.928 -43 25 47.61 4.0371 4.3891 104.4 18.9 2021 02 26 22 14 42 43.443 -43 25 39.39 4.0365 4.3893 104.4 18.9 2021 02 26 23 14 42 40.956 -43 25 31.16 4.0359 4.3894 104.5 18.9 2021 02 27 00 14 42 38.466 -43 25 22.90 4.0353 4.3895 104.5 18.9 2021 02 27 01 14 42 35.973 -43 25 14.63 4.0348 4.3896 104.6 18.9 2021 02 27 02 14 42 33.478 -43 25 06.35 4.0342 4.3898 104.6 18.9 2021 02 27 03 14 42 30.980 -43 24 58.04 4.0336 4.3899 104.7 18.9 2021 02 27 04 14 42 28.480 -43 24 49.72 4.0330 4.3900 104.7 18.9 2021 02 27 05 14 42 25.977 -43 24 41.38 4.0324 4.3902 104.7 18.9 2021 02 27 06 14 42 23.471 -43 24 33.03 4.0318 4.3903 104.8 18.9 2021 02 27 07 14 42 20.963 -43 24 24.65 4.0313 4.3904 104.8 18.9 2021 02 27 08 14 42 18.452 -43 24 16.26 4.0307 4.3905 104.9 18.9 2021 02 27 09 14 42 15.939 -43 24 07.85 4.0301 4.3907 104.9 18.9 2021 02 27 10 14 42 13.423 -43 23 59.42 4.0295 4.3908 105.0 18.9 2021 02 27 11 14 42 10.904 -43 23 50.98 4.0289 4.3909 105.0 18.9 2021 02 27 12 14 42 08.383 -43 23 42.52 4.0284 4.3911 105.1 18.9 2021 02 27 13 14 42 05.859 -43 23 34.04 4.0278 4.3912 105.1 18.9 2021 02 27 14 14 42 03.333 -43 23 25.54 4.0272 4.3913 105.1 18.9 2021 02 27 15 14 42 00.804 -43 23 17.03 4.0266 4.3914 105.2 18.9 2021 02 27 16 14 41 58.272 -43 23 08.50 4.0260 4.3916 105.2 18.9 2021 02 27 17 14 41 55.738 -43 22 59.95 4.0255 4.3917 105.3 18.9 2021 02 27 18 14 41 53.201 -43 22 51.38 4.0249 4.3918 105.3 18.9 2021 02 27 19 14 41 50.661 -43 22 42.79 4.0243 4.3919 105.4 18.9 2021 02 27 20 14 41 48.119 -43 22 34.19 4.0237 4.3921 105.4 18.9 2021 02 27 21 14 41 45.575 -43 22 25.57 4.0231 4.3922 105.5 18.9 2021 02 27 22 14 41 43.027 -43 22 16.93 4.0226 4.3923 105.5 18.9 2021 02 27 23 14 41 40.477 -43 22 08.28 4.0220 4.3925 105.6 18.9 2021 02 28 00 14 41 37.925 -43 21 59.60 4.0214 4.3926 105.6 18.9 2021 02 28 01 14 41 35.370 -43 21 50.91 4.0208 4.3927 105.6 18.9 2021 02 28 02 14 41 32.812 -43 21 42.20 4.0202 4.3928 105.7 18.9 2021 02 28 03 14 41 30.252 -43 21 33.47 4.0197 4.3930 105.7 18.9 2021 02 28 04 14 41 27.689 -43 21 24.73 4.0191 4.3931 105.8 18.9